OSCAR 29

Last updated on Sat Sep 05 2026 00:03:34 GMT+0000 (Coordinated Universal Time)

1 18362U 87080B 26247.53516057 .00000050 00000+0 70581-4 0 9995 2 18362 90.3635 89.5483 0104351 206.0418 181.5096 13.44488282910813
UTC large
Height (km)
Speed (km/s)
/
Latitude / Longitude
Inclination (degrees)
Orbital Period (minutes)
Azimuth
Elevation
Range (km)
Doppler Factor

Next 0 passes for location: London (51.5072 / 0.1276)

No passes found over London.
OSCAR 29